FENGYUN 1C DEB, 29996

Orbit data source: Space-Track

FENGYUN 1C DEB, 29996 is space debris in SSO originally from a launch on Mon, 10 May 1999 UTC launched from the Taiyaun Space Center, China (TSC). Fengyun 1C debris stems from the Chinese weather satellite Fengyun-1C, which was intentionally destroyed by a Chinese anti-satellite missile in 2007. This event dramatically increased the amount of space debris, with thousands of trackable fragments posing hazards to satellites and human spaceflight. The Fengyun 1C debris cloud has become a focal point in discussions about space sustainability and the need for international regulations to prevent the creation of new debris.

Loading next visibility...
Identifier
29996, 1999-025LW
Orbit
SSO
Country
Flag of CNCN / PRC
Related business
Manufacturer
Unknown
Mission
Spacecraft
Bus & Motor
Unknown
Mass
Unknown
Launch date (UTC)
1999-05-10 (27 years ago)
Launch vehicle
Unknown
Launch site
Taiyaun Space Center, China (TSC)
Object type
Payload
Rocket body
Debris
Shape & HBR
Unknown shape, 0.1 m
Radar Cross Section
Medium (>0.1 m² and <1 m²)

Expand to show TLE details & history
Last TLE update: 12 hours ago

TLE from 12 hours ago
0 FENGYUN 1C DEB
1 29996U 99025LW  26208.09123411  .00002998  00000-0  15681-2 0  9990
2 29996  99.2934 258.0778 0131686 175.7004 214.8923 14.10797851993271
Epoch: 2026-07-27T02:11Z
TLE epoch observation values (Epoch: 2026-07-27T02:11:22.627Z)
Latitude
29.36061°
Longitude
-84.80064°
Altitude
938.826 km
Speed
7.345 km/s
True Right ascension
16h 51m 17s
True Declination
29° 13' 03"
Sunlit
Object was in daylight at epoch
Visualization orbit readout
Latitude
Unknown
Longitude
Unknown
Altitude
Unknown
Speed
Unknown
Apparent Right ascension
Unknown
Apparent Declination
Unknown
Sunlit
N/A
Visualization observer readout
Local Sidereal Time
03:07:22
Azimuth
Unknown
Elevation
Unknown
Doppler factor
Unknown
Orbital elements
Apogee altitude
949.077 km
Perigee altitude
758.607 km
Semi-major axis
7,231.979 km
Eccentricity
0.01317
Inclination
99.2934°
RAAN
258.0778°
Arg. of periapsis
175.7004°
True anomaly
214.04063°
Mean anomaly
214.8923°
Eccentric anomaly
214.46532°
Mean motion
3.52905 °/min
Orbital period
102.01 mins
BSTAR
0.0015681
Loading maneuver chart data...
Computing Atmospheric mass density...
Loading historical data...
Loading historical data...
Loading historical data...
Loading historical data...
Loading historical data...
Loading historical data...
Loading historical data...

Documentation

Showing up to 5 results
|